When you browse on this site, cookies collect data to enhance your experience and personalize the content and advertising you see.
Visit our Privacy Policy to learn more. By continuing to use the site, you agree to this use of cookies and data.
  • In Latvia
  • List of Countries
  • For 7 days
  • Water Temperature
  • Weather Map
  • Weather Widgets
  • user-avatar
    Login

    Hourly Weather Adliswil

    Today, 17 September, Tuesday

    Time Temperature Precipitation Wind Pressure Humidity
    00:00 +16°C° 0 mm 0 mps 718 mmHg 90%
    01:00 +15°C° 0 mm 0 mps 718 mmHg 90%
    02:00 +15°C° 0 mm 0 mps 718 mmHg 90%
    03:00 +15°C° 0 mm 0 mps 717 mmHg 90%
    04:00 +15°C° 0 mm 0 mps 717 mmHg 91%
    05:00 +15°C° 0.1 mm 0 mps 717 mmHg 91%
    06:00 +15°C° 0.1 mm 0 mps 717 mmHg 91%
    07:00 +15°C° 0 mm 0 mps 718 mmHg 92%
    08:00 +17°C° 0.1 mm 0 mps 718 mmHg 85%
    09:00 +21°C° 0.1 mm 1 mps 718 mmHg 77%
    10:00 +22°C° 0.1 mm 1 mps 718 mmHg 69%
    11:00 +23°C° 0.1 mm 1 mps 718 mmHg 63%
    12:00 +24°C° 0.1 mm 1 mps 718 mmHg 56%
    13:00 +25°C° 0 mm 2 mps 718 mmHg 49%
    14:00 +25°C° 0 mm 2 mps 718 mmHg 51%
    15:00 +25°C° 0 mm 2 mps 717 mmHg 53%
    16:00 +24°C° 0 mm 2 mps 717 mmHg 55%
    17:00 +21°C° 0 mm 2 mps 717 mmHg 66%
    18:00 +20°C° 0 mm 1 mps 717 mmHg 77%
    19:00 +15°C° 0 mm 0 mps 717 mmHg 89%
    20:00 +16°C° 0 mm 1 mps 718 mmHg 87%
    21:00 +16°C° 0 mm 1 mps 718 mmHg 85%
    22:00 +16°C° 0 mm 2 mps 718 mmHg 83%
    23:00 +16°C° 0 mm 2 mps 718 mmHg 81%

    Tomorrow, 18 September, Wednesday

    Time Temperature Precipitation Wind Pressure Humidity
    00:00 +15°C° 0 mm 2 mps 718 mmHg 79%
    01:00 +14°C° 0 mm 3 mps 718 mmHg 76%
    02:00 +13°C° 0 mm 2 mps 718 mmHg 79%
    03:00 +12°C° 0 mm 2 mps 718 mmHg 81%
    04:00 +10°C° 0 mm 2 mps 717 mmHg 84%
    05:00 +10°C° 0 mm 2 mps 718 mmHg 84%
    06:00 +10°C° 0 mm 2 mps 718 mmHg 84%
    07:00 +10°C° 0 mm 2 mps 718 mmHg 84%
    08:00 +12°C° 0 mm 2 mps 718 mmHg 79%
    09:00 +12°C° 0 mm 3 mps 718 mmHg 74%
    10:00 +14°C° 0 mm 3 mps 718 mmHg 68%
    11:00 +16°C° 0 mm 3 mps 718 mmHg 65%
    12:00 +17°C° 0 mm 3 mps 718 mmHg 61%
    13:00 +18°C° 0 mm 4 mps 718 mmHg 58%
    14:00 +18°C° 0 mm 4 mps 718 mmHg 57%
    15:00 +18°C° 0 mm 4 mps 718 mmHg 57%
    16:00 +17°C° 0 mm 4 mps 718 mmHg 56%
    17:00 +16°C° 0 mm 3 mps 718 mmHg 60%
    18:00 +13°C° 0 mm 3 mps 718 mmHg 65%
    19:00 +12°C° 0 mm 2 mps 718 mmHg 69%
    20:00 +10°C° 0 mm 2 mps 718 mmHg 74%
    21:00 +9°C° 0 mm 2 mps 719 mmHg 78%
    22:00 +9°C° 0 mm 1 mps 719 mmHg 82%
    23:00 +9°C° 0 mm 1 mps 719 mmHg 84%

    Day after tomorrow, 19 September, Thursday

    Time Temperature Precipitation Wind Pressure Humidity
    00:00 +8°C° 0 mm 1 mps 719 mmHg 85%
    01:00 +7°C° 0 mm 1 mps 719 mmHg 87%
    02:00 +7°C° 0 mm 1 mps 719 mmHg 87%
    03:00 +7°C° 0 mm 1 mps 719 mmHg 88%
    04:00 +6°C° 0 mm 1 mps 718 mmHg 89%
    05:00 +6°C° 0 mm 1 mps 719 mmHg 88%
    06:00 +6°C° 0 mm 1 mps 719 mmHg 87%
    07:00 +7°C° 0 mm 1 mps 719 mmHg 86%
    08:00 +8°C° 0 mm 2 mps 719 mmHg 78%
    09:00 +10°C° 0 mm 2 mps 720 mmHg 69%
    10:00 +12°C° 0 mm 3 mps 720 mmHg 61%
    11:00 +14°C° 0 mm 3 mps 720 mmHg 57%
    12:00 +16°C° 0 mm 3 mps 720 mmHg 53%
    13:00 +17°C° 0 mm 4 mps 720 mmHg 49%
    14:00 +17°C° 0 mm 4 mps 720 mmHg 51%
    15:00 +17°C° 0 mm 4 mps 720 mmHg 52%
    16:00 +17°C° 0 mm 4 mps 720 mmHg 53%
    17:00 +14°C° 0 mm 4 mps 720 mmHg 61%
    18:00 +12°C° 0 mm 3 mps 720 mmHg 68%
    19:00 +10°C° 0 mm 3 mps 720 mmHg 76%
    20:00 +9°C° 0 mm 2 mps 720 mmHg 79%
    21:00 +8°C° 0 mm 2 mps 720 mmHg 81%
    22:00 +8°C° 0 mm 1 mps 721 mmHg 84%
    23:00 +7°C° 0 mm 1 mps 720 mmHg 85%

    20 September, Friday

    Time Temperature Precipitation Wind Pressure Humidity
    00:00 +7°C° 0 mm 1 mps 720 mmHg 86%
    01:00 +6°C° 0 mm 1 mps 720 mmHg 87%
    02:00 +6°C° 0 mm 1 mps 720 mmHg 88%
    03:00 +6°C° 0 mm 1 mps 720 mmHg 89%
    04:00 +4°C° 0 mm 0 mps 720 mmHg 90%
    05:00 +4°C° 0 mm 0 mps 719 mmHg 89%
    06:00 +5°C° 0 mm 0 mps 719 mmHg 88%
    07:00 +5°C° 0 mm 0 mps 719 mmHg 87%
    08:00 +8°C° 0 mm 1 mps 720 mmHg 78%
    09:00 +11°C° 0 mm 1 mps 720 mmHg 69%
    10:00 +13°C° 0 mm 2 mps 720 mmHg 60%
    11:00 +15°C° 0 mm 2 mps 720 mmHg 57%
    12:00 +16°C° 0 mm 2 mps 720 mmHg 54%
    13:00 +18°C° 0 mm 3 mps 719 mmHg 50%
    14:00 +18°C° 0 mm 3 mps 719 mmHg 52%
    15:00 +18°C° 0 mm 3 mps 719 mmHg 53%
    16:00 +18°C° 0 mm 3 mps 719 mmHg 55%
    17:00 +16°C° 0 mm 2 mps 719 mmHg 65%
    18:00 +13°C° 0 mm 2 mps 719 mmHg 75%
    19:00 +11°C° 0 mm 1 mps 718 mmHg 85%
    20:00 +10°C° 0 mm 1 mps 718 mmHg 87%
    21:00 +10°C° 0 mm 1 mps 719 mmHg 89%
    22:00 +9°C° 0 mm 1 mps 719 mmHg 92%
    23:00 +8°C° 0 mm 0 mps 719 mmHg 92%

    21 September, Saturday

    Time Temperature Precipitation Wind Pressure Humidity
    00:00 +8°C° 0 mm 0 mps 718 mmHg 92%
    01:00 +7°C° 0 mm 0 mps 718 mmHg 92%
    02:00 +7°C° 0 mm 0 mps 718 mmHg 92%
    03:00 +8°C° 0 mm 1 mps 718 mmHg 92%
    04:00 +8°C° 0 mm 1 mps 718 mmHg 92%
    05:00 +8°C° 0 mm 1 mps 718 mmHg 90%
    06:00 +9°C° 0 mm 1 mps 718 mmHg 89%
    07:00 +9°C° 0 mm 1 mps 718 mmHg 88%
    08:00 +12°C° 0 mm 1 mps 718 mmHg 79%
    09:00 +15°C° 0 mm 1 mps 718 mmHg 69%
    10:00 +19°C° 0 mm 1 mps 719 mmHg 60%
    11:00 +21°C° 0 mm 1 mps 719 mmHg 56%
    12:00 +23°C° 0 mm 1 mps 719 mmHg 52%
    13:00 +25°C° 0 mm 1 mps 718 mmHg 48%
    14:00 +25°C° 0 mm 1 mps 718 mmHg 50%
    15:00 +25°C° 0 mm 1 mps 718 mmHg 52%
    16:00 +25°C° 0 mm 1 mps 718 mmHg 54%
    17:00 +23°C° 0 mm 1 mps 718 mmHg 61%
    18:00 +21°C° 0 mm 1 mps 718 mmHg 68%
    19:00 +19°C° 0 mm 1 mps 717 mmHg 74%
    20:00 +18°C° 0 mm 1 mps 717 mmHg 77%
    21:00 +16°C° 0 mm 1 mps 717 mmHg 80%
    22:00 +15°C° 0 mm 1 mps 717 mmHg 83%
    23:00 +15°C° 0 mm 1 mps 717 mmHg 84%

    22 September, Sunday

    Time Temperature Precipitation Wind Pressure Humidity
    00:00 +14°C° 0 mm 1 mps 716 mmHg 84%
    01:00 +14°C° 0 mm 1 mps 716 mmHg 85%
    02:00 +14°C° 0 mm 1 mps 716 mmHg 85%
    03:00 +13°C° 0 mm 1 mps 716 mmHg 84%
    04:00 +13°C° 0 mm 1 mps 716 mmHg 84%
    05:00 +13°C° 0 mm 1 mps 716 mmHg 83%
    06:00 +14°C° 0 mm 1 mps 716 mmHg 82%
    07:00 +14°C° 0 mm 1 mps 716 mmHg 81%
    08:00 +16°C° 0 mm 1 mps 716 mmHg 73%
    09:00 +20°C° 0 mm 1 mps 716 mmHg 65%
    10:00 +23°C° 0 mm 1 mps 717 mmHg 56%
    11:00 +23°C° 0 mm 1 mps 716 mmHg 56%
    12:00 +24°C° 0 mm 1 mps 716 mmHg 55%
    13:00 +25°C° 0 mm 1 mps 716 mmHg 55%
    14:00 +24°C° 0 mm 1 mps 716 mmHg 57%
    15:00 +24°C° 0 mm 1 mps 715 mmHg 60%
    16:00 +23°C° 0 mm 1 mps 715 mmHg 63%
    17:00 +22°C° 0 mm 1 mps 715 mmHg 68%
    18:00 +20°C° 0 mm 1 mps 714 mmHg 74%
    19:00 +18°C° 0 mm 1 mps 714 mmHg 79%
    20:00 +18°C° 0 mm 1 mps 714 mmHg 82%
    21:00 +18°C° 0 mm 1 mps 714 mmHg 84%
    22:00 +16°C° 0 mm 1 mps 715 mmHg 86%
    23:00 +16°C° 0.3 mm 1 mps 715 mmHg 88%
    Show more